Date,TemperatureHighF,TemperatureAvgF,TemperatureLowF,DewpointHighF,DewpointAvgF,DewpointLowF,HumidityHigh,HumidityAvg,HumidityLow,PressureMaxIn,PressureMinIn,WindSpeedMaxMPH,WindSpeedAvgMPH,GustSpeedMaxMPH,PrecipitationSumIn
2013-1-1,26,24,20,21,15,11,82,71,56,30.21,30.08,5,1,12,0.01
2013-1-2,23,18,16,18,15,12,87,85,82,30.22,30.18,4,2,11,0.00
2013-1-3,29,22,12,26,18,7,91,84,76,30.22,30.12,5,2,17,0.00
2013-1-4,28,26,22,24,21,18,87,83,80,30.21,30.14,7,5,27,0.00
2013-1-5,37,32,23,31,27,21,95,82,68,30.27,30.04,6,4,16,0.02
2013-1-6,34,33,31,32,30,24,94,89,79,30.31,29.92,7,3,16,0.03
2013-1-7,36,30,24,25,24,21,92,79,63,30.38,30.16,10,4,27,0.02
2013-1-8,40,30,23,30,25,20,92,80,66,30.26,30.15,6,3,17,0.01
2013-1-9,46,38,28,34,30,24,89,73,45,30.45,30.05,11,5,30,0.03
2013-1-10,44,31,21,33,27,20,97,83,56,30.58,30.14,7,2,20,0.29
2013-1-11,56,46,35,51,43,33,98,92,81,30.14,29.77,8,5,23,0.88
2013-1-12,58,51,42,50,46,37,94,82,62,29.96,29.80,6,3,15,0.18
2013-1-13,40,34,26,37,32,22,97,94,86,30.12,29.82,7,2,21,0.63
2013-1-14,26,21,12,22,17,10,93,85,75,30.47,30.12,7,3,20,0.01
2013-1-15,31,18,10,22,14,8,96,84,65,30.47,30.21,3,0,10,0.05
2013-1-16,34,24,13,30,19,11,96,80,51,30.21,29.85,7,3,22,0.01
2013-1-17,34,28,20,30,21,11,86,74,60,30.36,30.01,10,4,25,0.00
2013-1-18,36,26,17,26,18,12,85,72,59,30.44,29.98,10,4,32,0.00
2013-1-19,43,37,36,33,28,26,76,71,67,29.98,29.83,6,5,23,0.03
2013-1-20,19,17,15,13,11,9,84,77,67,30.24,30.19,10,4,21,0.01
2013-1-21,16,12,5,13,8,0,89,84,72,30.20,30.05,7,3,21,0.00
2013-1-22,10,1,-10,5,-3,-14,89,81,67,30.36,30.20,6,2,20,0.00
2013-1-23,17,10,4,11,6,1,89,84,72,30.36,30.12,5,2,15,0.00
2013-1-24,20,10,3,9,3,0,90,74,45,30.67,30.21,3,1,10,0.07
2013-1-25,22,18,12,19,12,4,92,80,70,30.53,30.04,7,2,15,0.01
2013-1-26,28,22,18,19,16,14,92,78,56,30.47,30.10,6,2,14,0.04
2013-1-27,31,23,14,29,19,11,94,83,64,30.48,30.09,9,3,21,0.01
2013-1-28,45,38,31,45,36,29,100,97,93,30.11,29.89,6,3,19,0.46
2013-1-29,57,49,35,56,49,34,100,98,93,30.03,29.41,10,5,32,0.77
2013-1-30,56,46,27,55,45,23,99,96,83,29.41,29.14,10,4,29,1.25
2013-1-31,27,19,15,23,14,11,90,83,72,29.97,29.37,9,6,26,0.03